Home > Weather > Waltrop > Past weeks

Flag for Germany Past Weather in Waltrop, North Rhine-Westphalia, Germany — Yesterday and Last 2 Weeks

Now
64 °F

Passing clouds.


Feels Like: 64 °F
Forecast: 52 / 63 °F
Wind: 10 mph from South

Location: Duesseldorf

Current Time: Jul 1, 2016 at 3:04:20 AM

Latest Report: Jul 1, 2016 at 2:20 AM


Visibility: N/A

Pressure: 29.92 "Hg

Humidity: 88%

Dew Point: 61 °F

Location of WaltropLocation

Past Weather in Waltrop — Graph

°F

Waltrop Temperature Yesterday

Maximum temperature yesterday: 70 °F (at 4:50 PM)
Minimum temperature yesterday: 59 °F (at 6:50 AM)
Average temperature yesterday: 65 °F

High & Low Weather Summary for the Past Weeks

 TemperatureHumidityPressure
High91 °F (Jun 23, 3:20 PM)100% (Jun 16, 1:20 AM)30.27 "Hg (Jun 16, 1:20 AM)
Low50 °F (Jun 16, 2:20 AM)44% (Jun 23, 5:20 PM)29.56 "Hg (Jun 17, 12:50 AM)
Average63 °F83%29.99 "Hg
* Reported Jun 16 1:20 AM — Jul 1 1:50 AM, Waltrop, Weather by CustomWeather, © 2016

Note: Actual official high and low records may vary slightly from our data, if they occured in-between our weather recording intervals... More about our weather records

Advertising

Waltrop Weather History for the Previous 24 Hours

Scroll right to see more
 ConditionsComfort  
Time TempWeatherWind HumidityBarometerVisibility
1:50 AM
Fri, Jul 1
64 °FClear.10 mph88%29.92 "Hg10 mi
1:20 AM64 °FClear.10 mph88%29.92 "Hg10 mi
12:50 AM64 °FClear.9 mph88%29.92 "Hg10 mi
12:20 AM64 °FClear.9 mph83%29.92 "Hg10 mi
11:50 PM
Thu, Jun 30
64 °FClear.10 mph83%29.92 "Hg10 mi
11:20 PM66 °FPassing clouds.12 mph83%29.92 "HgN/A
10:50 PM66 °FPartly sunny.13 mph83%29.92 "HgN/A
10:20 PM66 °FBroken clouds.14 mph83%29.92 "HgN/A
9:50 PM66 °FPartly sunny.13 mph83%29.92 "HgN/A
9:20 PM66 °FPartly sunny.14 mph83%29.89 "HgN/A
8:50 PM68 °FSprinkles. Partly sunny.14 mph73%29.89 "HgN/A
8:20 PM68 °FSprinkles. Partly sunny.16 mph73%29.89 "HgN/A
7:50 PM68 °FSprinkles. Partly sunny.10 mph73%29.89 "HgN/A
7:20 PM70 °FPartly sunny.13 mph69%29.89 "HgN/A
6:50 PM70 °FPartly sunny.12 mph69%29.89 "HgN/A
6:20 PM70 °FBroken clouds.16 mph69%29.89 "HgN/A
5:50 PM70 °FPartly sunny.10 mph69%29.89 "HgN/A
5:20 PM70 °FBroken clouds.14 mph64%29.89 "HgN/A
4:50 PM70 °FPartly sunny.12 mph64%29.92 "HgN/A
4:20 PM68 °FPartly sunny.14 mph73%29.92 "HgN/A
3:50 PM68 °FPartly sunny.13 mph69%29.92 "HgN/A
3:20 PM68 °FPartly sunny.15 mph69%29.92 "HgN/A
2:50 PM68 °FPartly sunny.12 mph69%29.89 "HgN/A
2:20 PM68 °FBroken clouds.14 mph69%29.92 "HgN/A
1:50 PM68 °FBroken clouds.13 mph69%29.92 "HgN/A
1:20 PM66 °FPartly sunny.13 mph73%29.92 "HgN/A
12:50 PM68 °FPartly sunny.15 mph69%29.92 "HgN/A
12:20 PM66 °FPartly sunny.16 mph73%29.92 "HgN/A
11:50 AM64 °FBroken clouds.14 mph78%29.89 "HgN/A
11:20 AM64 °FBroken clouds.13 mph73%29.89 "HgN/A
10:50 AM64 °FBroken clouds.15 mph73%29.89 "HgN/A
10:20 AM64 °FBroken clouds.13 mph78%29.89 "HgN/A
9:50 AM63 °FBroken clouds.14 mph83%29.89 "HgN/A
9:20 AM63 °FPartly sunny.14 mph77%29.89 "HgN/A
8:50 AM63 °FPartly sunny.12 mph83%29.89 "HgN/A
8:20 AM61 °FPartly sunny.13 mph88%29.89 "HgN/A
7:50 AM61 °FPartly sunny.10 mph83%29.89 "HgN/A
7:20 AM61 °FPartly sunny.10 mph88%29.89 "HgN/A
6:50 AM59 °FPartly sunny.13 mph94%29.89 "HgN/A
6:20 AM61 °FBroken clouds.12 mph83%29.86 "HgN/A
5:50 AM61 °FPassing clouds.8 mph83%29.86 "HgN/A
5:20 AM61 °FLight rain. Passing clouds.9 mph83%29.86 "HgN/A
4:50 AM61 °FLight rain. Passing clouds.12 mph88%29.86 "HgN/A
4:20 AM61 °FLight rain. Passing clouds.12 mph83%29.86 "HgN/A
3:50 AM61 °FLight rain. Passing clouds.10 mph88%29.86 "HgN/A
3:20 AM63 °FPassing clouds.10 mph77%29.86 "HgN/A
Weather by CustomWeather, © 2016

See weather overviewHow to use our weather pages